Location: Barcelona
(41.3830°N, 2.1830°E)
Time: 20:13:40
(UTC+02:00)

ISS - Pass Details

Date: 16 March 2018
Orbit: 403 x 408 km, 51.6° (Epoch: 21 September)

Event Time Altitude Azimuth Distance (km) Brightness Sun altitude
Exits shadow 05:10:20 23° 353° (N) 939 -1.9 -21.5°
Maximum altitude 05:11:18 27° 23° (NNE) 843 -1.9 -21.3°
Drops below altitude 10° 05:14:11 10° 83° (E) 1,481 0.2 -20.8°
Sets 05:16:28 0° 96° (E) 2,337 1.2 -20.4°
